• In Belarus
  • List of Countries
  • For 7 days
  • Water Temperature
  • Satellite Maps
  • Weather Map
  • Weather Widgets
  • user-avatar
    Login

    Hourly Weather Naftalan

    Today, 27 June, Tuesday

    Time Temperature Precipitation Wind Pressure Humidity
    00:00 +24°C° 0 mm 3 mps 765 mmHg 77%
    01:00 +24°C° 0 mm 3 mps 765 mmHg 78%
    02:00 +24°C° 0 mm 3 mps 764 mmHg 80%
    03:00 +22°C° 0 mm 3 mps 764 mmHg 81%
    04:00 +24°C° 0 mm 3 mps 764 mmHg 78%
    05:00 +25°C° 0 mm 3 mps 764 mmHg 75%
    06:00 +26°C° 0 mm 3 mps 764 mmHg 71%
    07:00 +28°C° 0 mm 3 mps 764 mmHg 64%
    08:00 +29°C° 0 mm 3 mps 764 mmHg 57%
    09:00 +32°C° 0 mm 4 mps 763 mmHg 49%
    10:00 +33°C° 0 mm 4 mps 763 mmHg 46%
    11:00 +34°C° 0 mm 4 mps 763 mmHg 43%
    12:00 +35°C° 0 mm 5 mps 762 mmHg 40%
    13:00 +35°C° 0 mm 5 mps 762 mmHg 41%
    14:00 +35°C° 0 mm 5 mps 761 mmHg 42%
    15:00 +34°C° 0 mm 6 mps 761 mmHg 44%
    16:00 +33°C° 0 mm 5 mps 761 mmHg 49%
    17:00 +32°C° 0 mm 5 mps 761 mmHg 54%
    18:00 +30°C° 0 mm 5 mps 761 mmHg 59%
    19:00 +28°C° 0 mm 5 mps 761 mmHg 65%
    20:00 +27°C° 0 mm 4 mps 761 mmHg 71%
    21:00 +26°C° 0 mm 4 mps 761 mmHg 77%
    22:00 +26°C° 0 mm 3 mps 761 mmHg 79%
    23:00 +25°C° 0 mm 3 mps 760 mmHg 82%

    Tomorrow, 28 June, Wednesday

    Time Temperature Precipitation Wind Pressure Humidity
    00:00 +25°C° 0 mm 2 mps 760 mmHg 84%
    01:00 +24°C° 0 mm 2 mps 760 mmHg 86%
    02:00 +24°C° 0 mm 2 mps 760 mmHg 87%
    03:00 +24°C° 0 mm 2 mps 760 mmHg 88%
    04:00 +25°C° 0 mm 2 mps 760 mmHg 84%
    05:00 +26°C° 0 mm 1 mps 760 mmHg 80%
    06:00 +27°C° 0 mm 1 mps 760 mmHg 76%
    07:00 +29°C° 0 mm 1 mps 760 mmHg 67%
    08:00 +30°C° 0 mm 1 mps 760 mmHg 58%
    09:00 +32°C° 0 mm 1 mps 760 mmHg 49%
    10:00 +35°C° 0 mm 2 mps 760 mmHg 44%
    11:00 +36°C° 0 mm 3 mps 759 mmHg 39%
    12:00 +38°C° 0 mm 4 mps 759 mmHg 34%
    13:00 +38°C° 0 mm 4 mps 759 mmHg 32%
    14:00 +38°C° 0 mm 4 mps 758 mmHg 30%
    15:00 +39°C° 0 mm 5 mps 758 mmHg 29%
    16:00 +37°C° 0 mm 5 mps 758 mmHg 32%
    17:00 +35°C° 0 mm 4 mps 757 mmHg 35%
    18:00 +34°C° 0 mm 4 mps 757 mmHg 37%
    19:00 +32°C° 0 mm 4 mps 758 mmHg 44%
    20:00 +29°C° 0 mm 3 mps 758 mmHg 51%
    21:00 +27°C° 0 mm 2 mps 758 mmHg 57%
    22:00 +27°C° 0 mm 2 mps 758 mmHg 58%
    23:00 +26°C° 0 mm 2 mps 758 mmHg 58%

    Day after tomorrow, 29 June, Thursday

    Time Temperature Precipitation Wind Pressure Humidity
    00:00 +26°C° 0 mm 3 mps 758 mmHg 58%
    01:00 +25°C° 0 mm 2 mps 758 mmHg 58%
    02:00 +25°C° 0 mm 2 mps 758 mmHg 59%
    03:00 +24°C° 0 mm 2 mps 758 mmHg 59%
    04:00 +26°C° 0 mm 3 mps 758 mmHg 54%
    05:00 +27°C° 0 mm 3 mps 758 mmHg 49%
    06:00 +28°C° 0 mm 3 mps 758 mmHg 44%
    07:00 +30°C° 0 mm 3 mps 758 mmHg 37%
    08:00 +33°C° 0 mm 4 mps 758 mmHg 29%
    09:00 +35°C° 0 mm 4 mps 758 mmHg 22%
    10:00 +37°C° 0 mm 4 mps 758 mmHg 19%
    11:00 +38°C° 0 mm 4 mps 758 mmHg 17%
    12:00 +41°C° 0 mm 4 mps 758 mmHg 14%
    13:00 +41°C° 0 mm 5 mps 757 mmHg 14%
    14:00 +41°C° 0 mm 5 mps 757 mmHg 14%
    15:00 +41°C° 0 mm 6 mps 757 mmHg 15%
    16:00 +40°C° 0 mm 5 mps 757 mmHg 17%
    17:00 +37°C° 0 mm 5 mps 757 mmHg 19%
    18:00 +36°C° 0 mm 4 mps 757 mmHg 21%
    19:00 +34°C° 0 mm 4 mps 757 mmHg 27%
    20:00 +30°C° 0 mm 3 mps 758 mmHg 34%
    21:00 +28°C° 0 mm 3 mps 758 mmHg 40%
    22:00 +27°C° 0 mm 3 mps 758 mmHg 42%
    23:00 +26°C° 0 mm 3 mps 758 mmHg 44%

    30 June, Friday

    Time Temperature Precipitation Wind Pressure Humidity
    00:00 +25°C° 0 mm 2 mps 758 mmHg 47%
    01:00 +25°C° 0 mm 3 mps 758 mmHg 45%
    02:00 +25°C° 0 mm 3 mps 757 mmHg 43%
    03:00 +25°C° 0 mm 4 mps 757 mmHg 41%
    04:00 +26°C° 0 mm 4 mps 757 mmHg 37%
    05:00 +27°C° 0 mm 4 mps 758 mmHg 32%
    06:00 +29°C° 0 mm 4 mps 758 mmHg 28%
    07:00 +32°C° 0 mm 4 mps 758 mmHg 24%
    08:00 +34°C° 0 mm 5 mps 758 mmHg 20%
    09:00 +37°C° 0 mm 5 mps 758 mmHg 17%
    10:00 +39°C° 0 mm 5 mps 758 mmHg 16%
    11:00 +40°C° 0 mm 6 mps 758 mmHg 15%
    12:00 +42°C° 0 mm 6 mps 758 mmHg 14%
    13:00 +43°C° 0 mm 7 mps 758 mmHg 14%
    14:00 +43°C° 0 mm 8 mps 757 mmHg 14%
    15:00 +43°C° 0 mm 9 mps 757 mmHg 15%
    16:00 +40°C° 0 mm 8 mps 757 mmHg 17%
    17:00 +39°C° 0 mm 8 mps 758 mmHg 19%
    18:00 +36°C° 0 mm 7 mps 758 mmHg 21%
    19:00 +34°C° 0 mm 7 mps 758 mmHg 25%
    20:00 +32°C° 0 mm 6 mps 759 mmHg 30%
    21:00 +29°C° 0 mm 6 mps 759 mmHg 34%
    22:00 +28°C° 0 mm 6 mps 759 mmHg 35%
    23:00 +27°C° 0 mm 5 mps 759 mmHg 35%

    1 July, Saturday

    Time Temperature Precipitation Wind Pressure Humidity
    00:00 +27°C° 0 mm 5 mps 759 mmHg 36%
    01:00 +26°C° 0 mm 5 mps 759 mmHg 35%
    02:00 +26°C° 0 mm 5 mps 759 mmHg 33%
    03:00 +26°C° 0 mm 5 mps 759 mmHg 31%
    04:00 +27°C° 0 mm 5 mps 759 mmHg 30%
    05:00 +28°C° 0 mm 5 mps 759 mmHg 28%
    06:00 +29°C° 0 mm 5 mps 760 mmHg 27%
    07:00 +32°C° 0 mm 5 mps 760 mmHg 25%
    08:00 +34°C° 0 mm 6 mps 760 mmHg 22%
    09:00 +36°C° 0 mm 6 mps 760 mmHg 19%
    10:00 +38°C° 0 mm 7 mps 760 mmHg 20%
    11:00 +39°C° 0 mm 7 mps 760 mmHg 20%
    12:00 +40°C° 0 mm 8 mps 760 mmHg 20%
    13:00 +40°C° 0 mm 8 mps 760 mmHg 20%
    14:00 +40°C° 0 mm 8 mps 760 mmHg 21%
    15:00 +40°C° 0 mm 8 mps 760 mmHg 22%
    16:00 +39°C° 0 mm 7 mps 760 mmHg 24%
    17:00 +38°C° 0 mm 6 mps 760 mmHg 27%
    18:00 +35°C° 0 mm 5 mps 760 mmHg 29%
    19:00 +33°C° 0 mm 4 mps 760 mmHg 37%
    20:00 +30°C° 0 mm 3 mps 761 mmHg 44%
    21:00 +28°C° 0 mm 2 mps 761 mmHg 52%
    22:00 +27°C° 0 mm 2 mps 761 mmHg 52%
    23:00 +27°C° 0 mm 2 mps 761 mmHg 53%

    2 July, Sunday

    Time Temperature Precipitation Wind Pressure Humidity
    00:00 +27°C° 0 mm 2 mps 761 mmHg 53%
    01:00 +26°C° 0 mm 2 mps 761 mmHg 54%
    02:00 +26°C° 0 mm 2 mps 760 mmHg 54%
    03:00 +25°C° 0 mm 3 mps 760 mmHg 54%
    04:00 +26°C° 0 mm 3 mps 760 mmHg 49%
    05:00 +28°C° 0 mm 3 mps 760 mmHg 45%
    06:00 +29°C° 0 mm 3 mps 760 mmHg 40%
    07:00 +31°C° 0 mm 3 mps 760 mmHg 34%
    08:00 +35°C° 0 mm 3 mps 760 mmHg 28%
    09:00 +37°C° 0 mm 3 mps 760 mmHg 21%
    10:00 +38°C° 0 mm 3 mps 760 mmHg 20%
    11:00 +40°C° 0 mm 3 mps 759 mmHg 18%
    12:00 +42°C° 0 mm 3 mps 759 mmHg 17%
    13:00 +42°C° 0 mm 4 mps 759 mmHg 17%
    14:00 +42°C° 0 mm 4 mps 758 mmHg 17%
    15:00 +42°C° 0 mm 5 mps 758 mmHg 17%
    16:00 +41°C° 0 mm 4 mps 758 mmHg 21%
    17:00 +38°C° 0 mm 4 mps 758 mmHg 24%
    18:00 +36°C° 0 mm 4 mps 758 mmHg 28%
    19:00 +34°C° 0 mm 4 mps 758 mmHg 34%
    20:00 +31°C° 0 mm 3 mps 758 mmHg 40%
    21:00 +29°C° 0 mm 3 mps 758 mmHg 46%
    22:00 +28°C° 0 mm 3 mps 758 mmHg 46%
    23:00 +28°C° 0 mm 2 mps 758 mmHg 47%
    Show more